{"data":{"norad_id":62125,"intl_designator":"2024-222M","name":"STARLINK-32488","alt_names":[],"object_type":"PAYLOAD","status":"ACTIVE","operator":null,"country":"US","launch_date":"2024-11-27","launch_site_code":"AFETR","launch_vehicle":null,"mission":null,"orbit_class":"UNKNOWN","rcs_meters":null,"size_class":null,"mass_kg":null,"dimensions":null,"purposes":["comms"],"wikipedia_slug":null,"has_3d_model":false,"image_url":null,"decayed_at":null,"tle_current":{"epoch":"2026-09-20T23:46:15.864096Z","epoch_age_seconds":139959,"freshness":"FRESH","line1":"1 62125U 24222M   26263.99046139  .00012478  00000+0  46199-3 0  9991","line2":"2 62125  43.0021 113.5732 0003101  44.9119 315.1983 15.27593720102513","mean_motion":15.2759372,"eccentricity":0.0003101,"inclination_deg":43.0021,"raan_deg":113.5732,"arg_perigee_deg":44.9119,"mean_anomaly_deg":315.1983,"bstar":0.00046199,"rev_number":10251,"period_min":94.26590206197,"perigee_km":480.88037266264,"apogee_km":485.13565480015,"semimajor_km":6861.1450137314,"source":"CELESTRAK","updated_at":"2026-09-22T09:00:49.525890Z"}}}